Location: Gugi
(45.4667°N, 11.1000°E)
Time: 08:54:32
(UTC+00:00)

SKYMED 2 - Pass Details

Date: 17 November 2019
Orbit: 621 x 623 km, 97.9° (Epoch: 11 December)

Event Time Altitude Azimuth Distance (km) Brightness Sun altitude
Exits shadow 17:45:39 - 7° (N) 2,209 6.3 -21.2°
Reaches altitude 10° 17:46:09 10° 6° (N) 2,002 6.0 -21.3°
Maximum altitude 17:50:27 61° 287° (WNW) 712 4.0 -22.1°
Drops below altitude 10° 17:54:42 10° 207° (SSW) 1,986 6.5 -22.8°
Sets 17:56:54 0° 204° (SSW) 2,888 7.4 -23.2°
